Starlink 5260

operational
NORAD ID: 55275 Int'l Des: 2023-010 Owner: SPXS Country: US Constellation: starlink
LEOCIRCULAR

About Starlink 5260

Description loading...

Live Position

Loading 3D Globe...

Upcoming Passes

Altitude History

Altitude vs Time

uPlot chart will show altitude changes over time

Two-Line Element Set

1 55275U 23010G 26036.62657542 .00007078 00000-0 60016-3 0 9992
2 55275 70.0012 105.4170 0003066 273.9334 86.1475 14.98343082168479
Epoch: Feb 5, 2026 • Age: 14 hours

Current Status

Altitude 579.5 km
Velocity 7.57 km/s
Sub-Earth Point -24.40°S, 122.03°W
Launch Date Jan 19, 2023
Age 3 years
Type internet

Technical Details

Classification Payload
Mass 305.00 kg
Dry Mass 290.00 kg
Total Mass 305.00 kg
Length 0.20 m
Diameter 2.80 m
Span 9.00 m
Shape Box + pan
Manufacturer SPXS
Bus Type Starlink
Phase Status In Orbit
Owner/State SPXS/US

Large Constellations

Loading constellations...